Weather History for Anoka County, MN

Change the Weather History Date:

Wednesday, December 12, 2012

  Actual Average Record
Temperature  
Mean Temperature 22 °F -  
Max Temperature 42 °F 29 °F 46 °F (1998)
Min Temperature 3 °F 15 °F -11 °F (2000)
Degree Days  
Heating Degree Days 43    
Moisture  
Dew Point 18 °F    
Average Humidity 84    
Maximum Humidity 100    
Minimum Humidity 53    
Precipitation  
Precipitation 0.00 in - - ()
Sea Level Pressure  
Sea Level Pressure 29.91 in    
Wind  
Wind Speed 4 mph (SE)    
Max Wind Speed 13 mph    
Max Gust Speed 17 mph    
Visibility 9 miles    
Events      
Averages and records for this station are not official NWS values.
T = Trace of Precipitation, MM = Missing Value Source: NWS Daily Summary

Daily Weather History Graph

Daily Weather History Graph

Search for Another Location

Airport:

Trip Planner

Search our weather history database for the weather conditions in past years. The results will help you decide how hot, cold, wet, or windy it might be!

Date:

Astronomy

Dec. 12, 2012 Rise Set
Actual Time 7:42 AM CST 4:30 PM CST
Civil Twilight 7:08 AM CST 5:04 PM CST
Nautical Twilight 6:31 AM CST 5:41 PM CST
Astronomical Twilight 5:55 AM CST 6:17 PM CST
Moon 6:46 AM CST (12/12) 4:09 PM CST (12/12)
Length of Visible Light 9h 55m
Length of Day
8h 48m
Waning Crescent, 1% of the Moon is Illuminated
Dec 12
Waning Crescent
Dec 13
New
Dec 19
First Quarter
Dec 28
Full
Jan 4
Last Quarter

Hourly Weather History & Observations

Time (CST) Temp. Windchill Dew Point Humidity Pressure Visibility Wind Dir Wind Speed Gust Speed Precip Events Conditions
12:01 AM 3.2 °F - 1.4 °F 92% 30.00 in 3.0 mi Calm Calm - N/A   Clear
12:21 AM 3.2 °F - 1.4 °F 92% 30.00 in 10.0 mi East 2.3 mph - N/A   Clear
12:41 AM 3.2 °F - -0.4 °F 85% 29.99 in 7.0 mi Calm Calm - N/A   Clear
1:21 AM 3.2 °F - 1.4 °F 92% 30.00 in 7.0 mi East 1.2 mph - N/A   Clear
1:41 AM 3.2 °F - 1.4 °F 92% 29.99 in 7.0 mi East 2.3 mph - N/A   Mostly Cloudy
2:21 AM 6.8 °F - 5.0 °F 92% 29.98 in 10.0 mi East 2.3 mph - N/A   Scattered Clouds
2:41 AM 8.6 °F - 6.8 °F 92% 29.98 in 10.0 mi East 1.2 mph - N/A   Clear
3:21 AM 12.2 °F 6.1 °F 10.4 °F 92% 29.97 in 10.0 mi East 3.5 mph - N/A   Clear
3:41 AM 10.4 °F - 8.6 °F 92% 29.96 in 7.0 mi East 2.3 mph - N/A   Clear
4:01 AM 12.2 °F 6.1 °F 10.4 °F 92% 29.96 in 7.0 mi East 3.5 mph - N/A   Scattered Clouds
4:21 AM 12.2 °F 4.3 °F 12.2 °F 100% 29.95 in 7.0 mi East 4.6 mph - N/A   Scattered Clouds
4:41 AM 15.8 °F 10.2 °F 12.2 °F 86% 29.95 in 7.0 mi East 3.5 mph - N/A   Scattered Clouds
5:21 AM 15.8 °F 10.2 °F 14.0 °F 93% 29.94 in 10.0 mi East 3.5 mph - N/A   Clear
5:41 AM 15.8 °F 8.6 °F 15.8 °F 100% 29.93 in 10.0 mi East 4.6 mph - N/A   Clear
6:21 AM 17.6 °F 7.3 °F 17.6 °F 100% 29.91 in 10.0 mi ESE 8.1 mph - N/A   Clear
6:45 AM 19.4 °F 7.9 °F 17.6 °F 93% 29.91 in 10.0 mi ESE 10.4 mph - N/A   Scattered Clouds
7:45 AM 21.2 °F 10.1 °F 21.2 °F 100% 29.88 in 10.0 mi ESE 10.4 mph - N/A   Overcast
8:45 AM 24.8 °F 16.1 °F 23.0 °F 93% 29.88 in 10.0 mi SE 8.1 mph - N/A   Overcast
9:45 AM 28.4 °F 21.2 °F 24.8 °F 86% 29.88 in 10.0 mi ESE 6.9 mph - N/A   Overcast
10:45 AM 32.0 °F 23.0 °F 24.8 °F 75% 29.87 in 10.0 mi SSE 11.5 mph - N/A   Mostly Cloudy
11:45 AM 35.6 °F 28.6 °F 26.6 °F 70% 29.85 in 10.0 mi SSE 9.2 mph - N/A   Mostly Cloudy
12:45 PM 39.2 °F 32.0 °F 24.8 °F 56% 29.84 in 10.0 mi South 11.5 mph - N/A   Mostly Cloudy
1:47 PM 39.2 °F 31.6 °F 26.6 °F 61% 29.83 in 10.0 mi South 12.7 mph - N/A   Mostly Cloudy
2:48 PM 41.0 °F 35.2 °F 26.6 °F 57% 29.82 in 10.0 mi South 9.2 mph - N/A   Mostly Cloudy
3:55 PM 39.2 °F 35.9 °F 28.4 °F 65% 29.84 in 10.0 mi SSE 4.6 mph - N/A   Overcast
4:45 PM 37.4 °F 32.8 °F 30.2 °F 75% 29.84 in 10.0 mi SSE 5.8 mph - N/A   Mostly Cloudy
5:45 PM 37.4 °F - 30.2 °F 75% 29.85 in 10.0 mi Calm Calm - N/A   Overcast
6:45 PM 33.8 °F 28.6 °F 30.2 °F 87% 29.87 in 10.0 mi SSE 5.8 mph - N/A   Overcast
7:45 PM 35.6 °F 30.7 °F 30.2 °F 81% 29.88 in 10.0 mi SSE 5.8 mph - N/A   Mostly Cloudy
8:50 PM 37.4 °F 31.4 °F 35.6 °F 93% 29.89 in 10.0 mi SSE 8.1 mph - N/A   Mostly Cloudy
9:21 PM 39.2 °F 32.0 °F 26.6 °F 61% 29.89 in 10.0 mi South 11.5 mph - N/A   Clear
9:41 PM 42.8 °F 36.2 °F 26.6 °F 53% 29.89 in 10.0 mi South 12.7 mph 17.3 mph N/A   Clear